Location: Ç?ral? Körfezi
(36.3984°N, 30.4829°E)
Time: 09:45:29
(UTC+00:00)

SPOT 5 - Pass Details

Date: 04 August 2024
Orbit: 619 x 808 km, 98.1° (Epoch: 14 September)

Event Time Altitude Azimuth Distance (km) Brightness Sun altitude
Exits shadow 19:20:35 25° 208° (SSW) 1,550 4.4 -24.2°
Maximum altitude 19:23:06 42° 262° (W) 1,143 4.1 -24.5°
Drops below altitude 10° 19:28:09 10° 332° (NNW) 2,400 6.5 -25.2°
Sets 19:30:38 0° 340° (NNW) 3,332 7.4 -25.5°
